This demonstration page uses our WeatherBlox Daily Observations layout. Learn more.

40.92945, -100.16068

Hourly Observations for January 10, 2018

Temp ( °F °C ) Dew Point ( °F °C ) Humidity (%) Winds ( mph kmh ) Pressure ( in mb ) Visibility ( mi km ) Precip ( " mm )
12:15 am 00:15 Clear 32 0.2 28 -2.4 83 83 ENE 6 9 29.74 1007 10 16.0934 0 0
12:35 am 00:35 Clear 32 0.1 28 -2.4 83 83 E 5 7 29.74 1007 10 16.0934 0 0
12:55 am 00:55 Clear 33 0.5 28 -2.5 81 81 ESE 5 7 29.71 1006 10 16.0934 0 0
1:15 am 01:15 Clear 32 -0.2 27 -3 82 82 ESE 5 7 29.74 1007 10 16.0934 0 0
1:35 am 01:35 Clear 32 -0.1 27 -2.9 82 82 ESE 6 9 29.71 1006 10 16.0934 0 0
1:55 am 01:55 Clear 36 2.1 28 -2.1 74 74 SSE 6 9 29.68 1005 10 16.0934 0 0
2:15 am 02:15 Clear 35 1.6 28 -2.3 76 76 NE 3 6 29.68 1005 10 16.0934 0 0
2:35 am 02:35 Clear 33 0.8 28 -2.5 79 79 SE 8 13 29.65 1004 10 16.0934 0 0
2:55 am 02:55 Clear 34 1 28 -2.5 78 78 Calm 29.65 1004 10 16.0934 0 0
3:15 am 03:15 Clear 32 0.1 27 -2.9 80 80 SSE 3 6 29.65 1004 10 16.0934 0 0
3:35 am 03:35 Clear 32 0.2 27 -2.7 81 81 SSE 6 9 29.65 1004 10 16.0934 0 0
3:55 am 03:55 Clear 32 0.2 28 -2.5 82 82 SSE 7 11 29.65 1004 10 16.0934 0 0
4:15 am 04:15 Clear 32 -0.2 26 -3.1 81 81 SE 5 7 29.65 1004 10 16.0934 0 0
4:35 am 04:35 Clear 32 0 27 -2.8 82 82 SE 3 6 29.65 1004 10 16.0934 0 0
4:55 am 04:55 Clear 32 0 27 -3 80 80 Calm 29.62 1003 10 16.0934 0 0
5:15 am 05:15 Clear 29 -1.7 25 -3.8 86 86 Calm 29.65 1004 10 16.0934 0 0
5:35 am 05:35 Clear 28 -2.5 24 -4.5 86 86 ESE 3 6 29.65 1004 10 16.0934 0 0
5:55 am 05:55 Clear 28 -2.5 24 -4.2 88 88 ESE 5 7 29.62 1003 10 16.0934 0 0
6:15 am 06:15 Clear 28 -2 26 -3.6 89 89 ESE 6 9 29.62 1003 10 16.0934 0 0
6:35 am 06:35 Clear 29 -1.6 26 -3.5 87 87 E 6 9 29.62 1003 10 16.0934 0 0
6:55 am 06:55 Clear 28 -2 25 -3.8 88 88 Calm 29.62 1003 10 16.0934 0 0
7:15 am 07:15 Clear 28 -2.5 24 -4.2 88 88 NE 5 7 29.62 1003 10 16.0934 0 0
7:35 am 07:35 Clear 27 -2.7 24 -4.3 89 89 E 5 7 29.62 1003 10 16.0934 0 0
7:55 am 07:55 Clear 29 -1.7 26 -3.5 88 88 E 3 6 29.62 1003 10 16.0934 0 0
8:15 am 08:15 Sunny 29 -1.7 25 -3.7 86 86 Calm 29.62 1003 10 16.0934 0 0
8:35 am 08:35 Sunny 29 -1.6 26 -3.2 89 89 Calm 29.62 1003 10 16.0934 0 0
8:55 am 08:55 Sunny 31 -0.4 28 -2.1 88 88 SE 5 7 29.59 1002 10 16.0934 0 0
9:15 am 09:15 Sunny 33 0.5 29 -1.5 87 87 SE 6 9 29.56 1001 10 16.0934 0 0
9:35 am 09:35 Sunny 34 1 30 -0.9 87 87 Calm 29.56 1001 10 16.0934 0 0
9:55 am 09:55 Sunny 35 1.5 31 -0.3 88 88 SE 6 9 29.56 1001 10 16.0934 0 0
10:15 am 10:15 Sunny 35 1.8 32 0 88 88 SSE 3 6 29.56 1001 10 16.0934 0 0
10:35 am 10:35 Sunny 35 1.9 32 0 87 87 Calm 29.53 1000 10 16.0934 0 0
10:55 am 10:55 Sunny 37 2.6 32 0.2 84 84 Calm 29.53 1000 10 16.0934 0 0
11:15 am 11:15 Sunny 37 2.7 32 0.2 84 84 Calm 29.53 1000 10 16.0934 0 0
11:35 am 11:35 Sunny 38 3.3 33 0.5 82 82 Calm 29.5 999 10 16.0934 0 0
11:55 am 11:55 Sunny 39 3.7 32 0.2 78 78 Calm 29.5 999 10 16.0934 0 0
12:15 pm 12:15 Sunny 40 4.5 33 0.3 74 74 Calm 29.5 999 10 16.0934 0 0
12:35 pm 12:35 Sunny 40 4.6 33 0.4 74 74 SSE 3 6 29.44 997 10 16.0934 0 0
12:55 pm 12:55 Sunny 41 5 33 0.6 73 73 Calm 29.44 997 10 16.0934 0 0
1:15 pm 13:15 Sunny 42 5.5 34 1.2 74 74 S 8 13 29.41 996 10 16.0934 0 0
1:35 pm 13:35 Sunny 43 6.2 35 1.4 72 72 S 7 11 29.41 996 10 16.0934 0 0
1:55 pm 13:55 Sunny 44 6.5 34 1.2 69 69 Calm 29.41 996 10 16.0934 0 0
2:15 pm 14:15 Sunny 45 7 34 1.1 66 66 NW 3 6 29.41 996 10 16.0934 0 0
2:35 pm 14:35 Sunny 45 7 34 1.2 67 67 N 3 6 29.35 994 10 16.0934 0 0
2:55 pm 14:55 Sunny 44 6.8 34 1.3 68 68 NE 7 11 29.38 995 10 16.0934 0 0
3:15 pm 15:15 Sunny 45 7 33 0.8 65 65 Calm 29.35 994 10 16.0934 0 0
3:35 pm 15:35 Sunny 45 7 34 1.3 67 67 Calm 29.41 996 10 16.0934 0 0
3:55 pm 15:55 Sunny 46 7.7 36 2.1 68 68 SSE 7 11 29.41 996 10 16.0934 0 0
4:15 pm 16:15 Sunny 47 8.1 36 2 66 66 ESE 3 6 29.41 996 10 16.0934 0 0
4:35 pm 16:35 Sunny 47 8.2 35 1.9 65 65 Calm 29.41 996 10 16.0934 0 0
4:55 pm 16:55 Sunny 46 8 35 1.8 65 65 Calm 29.41 996 10 16.0934 0 0
5:15 pm 17:15 Sunny 44 6.9 35 1.7 70 70 Calm 29.44 997 10 16.0934 0 0
5:35 pm 17:35 Clear 43 6 35 1.5 73 73 Calm 29.47 998 10 16.0934 0 0
5:55 pm 17:55 Clear 44 6.5 35 1.7 72 72 Calm 29.47 998 10 16.0934 0 0
6:15 pm 18:15 Clear 41 4.9 35 1.4 78 78 Calm 29.47 998 10 16.0934 0 0
6:35 pm 18:35 Mostly Cloudy 37 2.8 33 0.3 84 84 NNW 8 13 29.5 999 10 16.0934 0 0
6:55 pm 18:55 Mostly Cloudy 38 3.2 33 0.3 82 82 N 9 15 29.5 999 10 16.0934 0 0
7:15 pm 19:15 Mostly Cloudy 38 3.3 33 0.3 81 81 N 8 13 29.53 1000 10 16.0934 0 0
7:35 pm 19:35 Mostly Cloudy 42 5.4 34 1.2 75 75 N 20 31 29.53 1000 10 16.0934 0 0
7:55 pm 19:55 Cloudy 40 4.5 33 0.7 77 77 N 26 43 29.59 1002 10 16.0934 0 0
8:15 pm 20:15 Cloudy 38 3.4 32 0 79 79 N 26 43 29.62 1003 10 16.0934 0 0
8:35 pm 20:35 Cloudy 37 2.8 32 -0.1 81 81 N 25 41 29.62 1003 10 16.0934 0 0
8:55 pm 20:55 Cloudy 35 1.9 31 -0.5 84 84 N 30 48 29.68 1005 10 16.0934 0 0
9:15 pm 21:15 Cloudy 33 0.6 28 -2.1 82 82 N 22 35 29.74 1007 10 16.0934 0 0
9:35 pm 21:35 Cloudy 32 0 26 -3.5 78 78 N 22 35 29.8 1009 10 16.0934 0 0
9:55 pm 21:55 Cloudy 29 -1.7 21 -6.1 72 72 NNW 36 57 29.8 1009 10 16.0934 0 0
10:15 pm 22:15 Cloudy 27 -3 19 -7.5 71 71 N 30 48 29.83 1010 10 16.0934 0 0
10:35 pm 22:35 Cloudy 26 -3.5 19 -7.5 74 74 N 28 44 29.85 1011 10 16.0934 0 0
10:55 pm 22:55 Cloudy 24 -4.7 16 -9 72 72 N 31 50 29.91 1013 7 11.26538 0 0
11:15 pm 23:15 Windy with Snow Likely 22 -5.5 16 -8.8 78 78 N 25 41 29.91 1013 5 8.0467 0 0
11:35 pm 23:35 Windy with Snow Likely 19 -7.1 14 -9.8 81 81 N 30 48 29.91 1013 1.25 2.011675 0 0
11:55 pm 23:55 Cloudy with Snow 18 -7.7 14 -10 84 84 N 25 41 29.97 1015 0.75 1.207005 0 0

Powered by AerisWeather